sat.trackr.live / text

‹ back to catalog

STARLINK-35385

NORAD 65906 · 2025-224AA

PAYLOAD ACTIVE UNKNOWN

§ Identity

Operator
Country
US
Launch date
2025-10-07
Launch site
AFETR
Launch vehicle
Mass (kg)
RCS (m²)

Purposes: comms

External: N2YO · Heavens-Above · Gunter

§ Orbital elements

Epoch: 2026-09-19T12:25:44.101056Z

Period
93.85 min
Inclination
53.1589°
Eccentricity
0.0000948
Mean motion
15.34387072 rev/d
Perigee alt
462.1 km
Apogee alt
463.4 km
Semi-major
6,840.9 km
B*
4.7774e-4
RAAN
186.5317°
Arg perigee
89.3191°
Mean anomaly
270.7920°
Rev number
5,459

§ Raw data

STARLINK-353851 65906U 25224AA  26262.51787154  .00015792  00000+0  47774-3 0  99922 65906  53.1589 186.5317 0000948  89.3191 270.7920 15.34387072 54592

JSON: /api/v1/satellites/65906 · /tle

For live sub-satellite position, see the globe view (requires WebGL).

§ Visibility from observer

Set your observer location to see the next 7 days of passes ≥ 10°. The values pass through the URL so the page stays shareable.

No JS? Fill the form by hand. The geolocation button needs JavaScript.